Location: East Guldeford
(50.9500°N, 0.7500°E)
Time: 09:14:38
(UTC+00:00)

Terra - Pass Details

Date: 12 May 2021
Orbit: 701 x 703 km, 98.2° (Epoch: 17 June)

Event Time Altitude Azimuth Distance (km) Brightness Sun altitude
Exits shadow 20:37:04 10° 120° (ESE) 2,182 3.7 -8.5°
Reaches altitude 10° 20:37:06 10° 119° (ESE) 2,172 3.7 -8.5°
Maximum altitude 20:41:07 28° 62° (ENE) 1,320 3.1 -8.9°
Drops below altitude 10° 20:45:08 10° 5° (N) 2,184 5.0 -9.4°
Sets 20:47:39 0° 354° (N) 3,107 6.1 -9.6°
